EW6230 Weather Reports


time (UTC)temp
F
wind
direction
speed
knots
gust
knots
rain 1hr
in
rain 24hr
in
rain mn
in
humidity
%
barometer
mb
20260831071508 54 237 0.0 0.0 0.00 0.00 0.00 1 1013.8
20260831070005 54 237 0.0 0.0 0.00 0.00 0.00 1 1014.1
20260831064600 54 237 0.0 0.0 0.00 0.00 0.00 1 1014.2
20260831063054 55 237 0.0 0.0 0.00 0.00 0.00 1 1014.4
20260831061554 55 238 0.0 0.0 0.00 0.00 0.00 1 1014.3
20260831060050 55 237 0.0 0.0 0.00 0.00 0.00 1 1014.3
20260831054545 56 238 0.0 0.0 0.00 0.00 0.00 1 1014.3
20260831053039 56 238 0.0 0.0 0.00 0.00 0.00 1 1014.4
20260831051537 57 237 0.0 0.0 0.00 0.00 0.00 1 1014.4
20260831050027 57 237 0.0 0.0 0.00 0.00 0.00 1 1014.6
20260831044523 57 237 0.0 0.0 0.00 0.00 0.00 1 1014.8
20260831043018 58 238 0.0 0.0 0.00 0.00 0.00 1 1014.8
20260831041514 58 238 0.0 0.0 0.00 0.00 0.00 1 1014.9
20260831040010 59 237 0.0 0.0 0.00 0.00 0.00 1 1014.9
20260831034505 59 237 0.0 0.0 0.00 0.00 0.00 1 1014.8
20260831033002 59 237 0.0 0.0 0.00 0.00 0.00 2 1014.8
20260831031557 60 238 0.0 0.0 0.00 0.00 0.00 6 1014.8
20260831030053 60 238 0.0 0.0 0.00 0.00 0.00 8 1014.9
20260831024549 60 237 0.0 0.0 0.00 0.00 0.00 11 1014.9
20260831023045 60 238 0.0 0.0 0.00 0.00 0.00 17 1014.9
20260831021539 61 237 0.0 0.0 0.00 0.00 0.00 20 1014.9
20260831020038 61 238 0.0 0.0 0.00 0.00 0.00 24 1015.0
20260831014531 61 238 0.0 0.0 0.00 0.00 0.00 32 1015.2
20260831013026 61 237 0.0 0.0 0.00 0.00 0.00 35 1015.2
20260831011522 61 238 0.0 0.0 0.00 0.00 0.00 29 1015.3
20260831010017 61 238 0.0 0.9 0.00 0.00 0.00 34 1015.3
20260831004512 61 238 0.0 0.0 0.00 0.00 0.00 35 1015.3
20260831003006 62 237 0.0 0.0 0.00 0.00 0.00 42 1015.6
20260831001506 62 238 0.0 0.9 0.00 0.00 0.00 46 1015.8
20260831000111 63 279 0.0 0.0 0.00 0.00 0.00 52 1015.8
20260830234553 63 279 0.0 0.9 0.00 0.00 0.00 55 1015.9
20260830233049 63 73 0.0 0.9 0.00 0.00 0.00 59 1016.0
20260830231546 64 160 0.0 0.0 0.00 0.00 0.00 61 1016.1
20260830230040 64 160 0.0 0.9 0.00 0.00 0.00 61 1016.0
20260830224536 65 335 0.0 0.9 0.00 0.00 0.00 61 1016.2
20260830223030 65 335 0.0 0.9 0.00 0.00 0.00 63 1016.1
20260830221536 66 335 0.0 0.9 0.00 0.00 0.00 63 1016.1
20260830220022 66 329 0.0 0.9 0.00 0.00 0.00 63 1016.2
20260830214518 66 254 0.0 0.9 0.00 0.00 0.00 62 1016.3
20260830213013 65 254 0.0 0.9 0.00 0.00 0.00 61 1016.6
20260830211508 65 210 0.0 1.7 0.00 0.00 0.00 62 1016.6
20260830210007 66 50 0.0 0.9 0.00 0.00 0.00 63 1016.4
20260830204600 66 202 0.0 0.0 0.00 0.00 0.00 62 1016.4
20260830203057 65 227 0.0 2.6 0.00 0.00 0.00 62 1016.4
20260830201551 63 83 0.0 0.9 0.00 0.00 0.00 62 1016.3
20260830200047 64 105 0.0 1.7 0.00 0.00 0.00 62 1016.4
20260830194543 64 143 0.0 0.9 0.00 0.00 0.00 63 1016.4
20260830193038 63 359 0.0 0.0 0.00 0.00 0.00 63 1016.4
20260830191539 63 347 0.0 0.0 0.00 0.00 0.00 63 1016.5
20260830190032 64 352 0.0 0.0 0.00 0.00 0.00 63 1016.5
20260830184528 64 49 0.0 0.0 0.00 0.00 0.00 62 1016.5
20260830183022 62 49 0.0 0.0 0.00 0.00 0.00 62 1016.5
20260830181519 62 49 0.0 0.0 0.00 0.00 0.00 62 1016.5
20260830180014 63 44 0.0 0.0 0.00 0.00 0.00 62 1016.5
20260830174510 63 22 0.0 0.0 0.00 0.00 0.00 61 1016.6
20260830173008 63 347 0.0 0.0 0.00 0.00 0.00 63 1016.5
20260830171610 62 44 0.0 0.0 0.00 0.00 0.00 59 1016.5
20260830170055 61 55 0.0 0.0 0.00 0.00 0.00 56 1016.4
20260830164551 61 56 0.0 0.0 0.00 0.00 0.00 58 1016.4
20260830163046 60 5 0.0 0.0 0.00 0.00 0.00 51 1016.5
20260830161548 58 283 0.0 0.0 0.00 0.00 0.00 35 1016.5
20260830160037 57 283 0.0 0.0 0.00 0.00 0.00 36 1016.4
20260830154532 56 283 0.0 0.0 0.00 0.00 0.00 26 1016.5
20260830153030 55 283 0.0 0.0 0.00 0.00 0.00 11 1016.5
20260830151523 54 283 0.0 0.0 0.00 0.00 0.00 1 1016.4
20260830150020 53 284 0.0 0.0 0.00 0.00 0.00 1 1016.2
20260830144515 0 0.0 0.0 0.00 0.00 0.00 1016.2
20260830143010 0 0.0 0.0 0.00 0.00 0.00 1016.2
20260830141506 0 0.0 0.0 0.00 0.00 0.00 1016.1
20260830140001 0 0.0 0.0 0.00 0.00 0.00 1016.0
20260830134559 0 0.0 0.0 0.00 0.00 0.00 1016.0
20260830133052 0 0.0 0.0 0.00 0.00 0.00 1016.0
20260830131557 0 0.0 0.0 0.00 0.00 0.00 1015.8
20260830130045 0 0.0 0.0 0.00 0.00 0.00 1015.8
20260830124540 0 0.0 0.0 0.00 0.00 0.00 1015.8
20260830123039 0 0.0 0.0 0.00 0.00 0.00 1015.8
20260830121531 0 0.0 0.0 0.00 0.00 0.00 1016.0
20260830120027 49 231 0.0 0.0 0.00 0.00 0.00 1 1016.2
20260830114523 50 236 0.0 0.0 0.00 0.00 0.00 1 1016.2
20260830113022 51 236 0.0 0.0 0.00 0.00 0.00 1 1016.2
20260830111514 51 231 0.0 0.0 0.00 0.00 0.00 1 1016.2
20260830110009 51 231 0.0 0.0 0.00 0.00 0.00 1 1016.3
20260830104505 51 230 0.0 0.0 0.00 0.00 0.00 1 1016.2
20260830103101 51 226 0.0 0.0 0.00 0.00 0.00 1 1016.0
20260830101558 51 226 0.0 0.0 0.00 0.00 0.00 1 1015.8
20260830100052 50 226 0.0 0.0 0.00 0.00 0.00 1 1015.8
20260830094548 49 226 0.0 0.0 0.00 0.00 0.00 1 1015.7
20260830093045 49 226 0.0 0.0 0.00 0.00 0.00 1 1015.8
20260830091539 50 226 0.0 0.0 0.00 0.00 0.00 1 1015.9
20260830090035 50 226 0.0 0.0 0.00 0.00 0.00 1 1016.0
20260830084530 50 226 0.0 0.0 0.00 0.01 0.00 1 1015.9
20260830083025 50 224 0.0 0.0 0.00 0.01 0.00 1 1015.9
20260830081523 50 223 0.0 0.0 0.00 0.01 0.00 1 1015.8
20260830080016 51 224 0.0 0.0 0.00 0.01 0.00 1 1015.7
20260830074512 51 223 0.0 0.0 0.00 0.01 0.00 1 1015.6
20260830073008 51 223 0.0 0.0 0.00 0.01 0.00 1 1015.6